User: anonymous   Login
Location: Fort Wayne
(41.1310°N, 85.1290°W)
Time: 03:40:45
(UTC-05:00)
Language:

Tiros 1 despin weight - Orbit

View from above orbital plane
View from above orbital plane
View from above satellite
View from above satellite

Ground track
Ground track

The orbit data is extracted from the following two-line orbital elements,

1 00115U 60002D   15030.89654596  .00001802  00000-0  25206-3 0  5687
2 00115 048.1677 352.7156 0035914 238.1603 151.2945 14.81583301921391
Epoch (UTC): 30 January 2015 21:31:01
Eccentricity: 0.0035914
inclination: 48.1677°
perigee height: 599 km
apogee height: 649 km
right ascension of ascending node: 352.7156°
argument of perigee: 238.1603°
revolutions per day: 14.81583301
mean anomaly at epoch: 151.2945°
orbit number at epoch: 92139

The dashed part of the orbit path shows where the satellite is in the earth's shadow,  

DLR